Main page
METAR-TAF:

METAR-TAF

Airports :

Baraboo–Wisconsin Dells Airport

Baraboo / Wisconsin Dells, Wisconsin, United States

latitude: 43-31-19N, longitude: 089-46-15W, elevation: 977 ft

Current weather observation

The report was made 32 minutes ago, at 00:15 UTC
Wind 17 mph from the South with gusts up to 30 mph
Temperature 70°F
Humidity 43%
Pressure 29.55 in. Hg
Visibility: 10 miles
Broken clouds at a height of 9500 ft

METAR: KDLL 040015Z AUTO 17015G26KT 10SM BKN095 21/08 A2955 RMK AO2 T02130082

Time: 18:47 (00:47 UTC)


TAF: missing

Weather observations and forecasts of more than 4000 airports (METAR and TAF reports).

The available stations are represented by yellow and red dots on the map.

Hover mouse over dot to see the name of the station.

Then click to see weather observations and forecasts.

To change the map : click on the green buttons with a black cross to zoom in, on the green button with a dash to zoom out, or on the green arrows for adjacent maps.


METAR-TAF: